"startDT [UTC]","vpos","CH4 [ppm]","stdev(CH4) [ppm]","CO2 [ppm]","stdev(CO2) [ppm]","H2O [ppm]","stdev(H2O)","p_LGR [torr]","T_LGR [C]","mt1_LGR [us]","mt2_LGR [us]","T_ECpre [C]","T_EC1 [C]","T_EC2 [C]","p_inlet [hPa]","p_in [hPa]","p_out [hPa]","T_inlet [C]","RH_inlet [%]","dwpt_inlet [C]","T_vent [C]","RH_vent [%]","dwpt_vent [C]","flow_vent [l min-1]","flow_inlet [l min-1]","dwpt_sample [C]","T_room [C]"
2013-03-25 00:00:00,0.0,1.9255,0.0011,405.05,0.46,-1.0,0.0,138.05,30.92,24.66,36.42,0.04,-272.76,-272.76,-43,564,-936,24.6,0.8,-37.2,24.7,0.9,-36.4,5.73,2.39,-31.8,29.8
2013-03-25 00:01:00,0.0,1.9266,0.0010,405.17,0.44,-1.0,0.0,138.05,30.92,24.66,36.42,0.04,-272.75,-272.76,-43,564,-936,24.6,0.8,-37.2,24.6,0.8,-36.9,5.73,2.36,-31.8,29.8
2013-03-25 00:02:00,0.0,1.9255,0.0010,404.96,0.44,-1.0,0.0,138.05,30.92,24.66,36.43,0.04,-272.76,-272.76,-43,564,-936,24.6,0.8,-37.1,24.6,0.8,-37.2,5.73,2.36,-31.8,29.8
2013-03-25 00:03:00,0.0,1.9276,0.0009,405.18,0.39,-1.0,0.0,138.05,30.92,24.66,36.42,0.04,-272.76,-272.76,-43,564,-937,24.6,0.8,-37.6,24.7,0.8,-36.9,5.73,2.39,-31.8,29.8
2013-03-25 00:04:00,0.0,1.9262,0.0012,405.09,0.48,-1.0,0.0,138.05,30.92,24.66,36.43,0.04,-272.75,-272.75,-43,564,-936,24.6,0.8,-37.7,24.6,0.8,-37.1,5.73,2.42,-31.8,29.8
2013-03-25 00:05:00,0.0,1.9264,0.0010,405.03,0.42,-1.0,0.0,138.05,30.92,24.66,36.43,0.04,-272.76,-272.76,-43,564,-936,24.6,0.8,-37.5,24.7,0.9,-36.6,5.73,2.43,-31.8,29.9
2013-03-25 00:06:00,0.0,1.9252,0.0010,405.14,0.36,-1.0,0.0,138.05,30.92,24.66,36.42,0.04,-272.75,-272.76,-43,564,-936,24.6,0.8,-37.2,24.7,0.8,-36.9,5.73,2.40,-31.8,29.8
2013-03-25 00:07:00,0.0,1.9258,0.0009,405.05,0.43,-1.0,0.0,138.05,30.92,24.66,36.43,0.04,-272.75,-272.75,-43,564,-936,24.6,0.8,-37.2,24.7,0.8,-37.4,5.73,2.37,-31.8,29.8
2013-03-25 00:08:00,0.0,1.9257,0.0011,405.06,0.38,-1.0,0.0,138.05,30.93,24.66,36.42,0.04,-272.75,-272.75,-43,564,-937,24.6,0.8,-37.5,24.7,0.8,-37.1,5.73,2.35,-31.8,29.8
2013-03-25 00:09:00,0.0,1.9261,0.0009,405.02,0.43,-1.0,0.0,138.05,30.93,24.66,36.43,0.04,-272.76,-272.75,-43,564,-936,24.6,0.8,-37.3,24.7,0.8,-37.0,5.73,2.36,-31.8,29.9
2013-03-25 00:10:00,0.0,1.9258,0.0008,405.16,0.37,-1.0,0.0,138.05,30.93,24.66,36.43,0.04,-272.75,-272.76,-43,564,-936,24.7,0.8,-37.4,24.7,0.8,-36.7,5.73,2.41,-31.8,29.9
2013-03-25 00:11:00,0.0,1.9257,0.0009,405.06,0.43,-1.0,0.0,138.05,30.93,24.66,36.43,0.04,-272.75,-272.75,-43,564,-936,24.6,0.8,-37.3,24.7,0.8,-36.8,5.73,2.43,-31.8,29.8
2013-03-25 00:12:00,0.0,1.9256,0.0010,405.19,0.44,-1.0,0.0,138.05,30.93,24.66,36.42,0.04,-272.76,-272.75,-43,564,-937,24.6,0.8,-37.1,24.7,0.8,-36.6,5.73,2.42,-31.8,29.9
2013-03-25 00:13:00,0.0,1.9259,0.0009,405.10,0.42,-1.0,0.0,138.05,30.93,24.66,36.43,0.04,-272.76,-272.76,-43,564,-936,24.6,0.8,-37.0,24.7,0.8,-36.8,5.73,2.38,-31.8,29.9
2013-03-25 00:14:00,0.0,1.9257,0.0011,405.09,0.36,-1.0,0.0,138.05,30.93,24.66,36.43,0.04,-272.76,-272.75,-43,564,-936,24.6,0.8,-37.1,24.7,0.9,-36.5,5.73,2.35,-31.8,29.9
2013-03-25 00:15:00,0.0,1.9257,0.0008,405.17,0.40,-1.0,0.0,138.05,30.93,24.66,36.42,0.04,-272.75,-272.76,-43,564,-937,24.7,0.8,-36.9,24.7,0.8,-36.8,5.73,2.36,-31.8,29.8
2013-03-25 00:16:00,0.0,1.9261,0.0009,405.16,0.46,-1.0,0.0,138.05,30.94,24.66,36.43,0.04,-272.75,-272.75,-43,564,-936,24.6,0.8,-36.7,24.7,0.9,-36.2,5.73,2.39,-31.8,29.9
2013-03-25 00:17:00,0.0,1.9260,0.0011,405.16,0.45,-1.0,0.0,138.05,30.94,24.66,36.42,0.04,-272.75,-272.75,-43,564,-936,24.6,0.9,-36.6,24.7,0.9,-36.5,5.73,2.42,-31.7,29.9
2013-03-25 00:18:00,0.0,1.9266,0.0010,405.25,0.47,-1.0,0.0,138.05,30.94,24.66,36.43,0.04,-272.75,-272.76,-43,564,-936,24.7,0.8,-36.7,24.7,0.9,-36.4,5.73,2.43,-31.8,29.9
2013-03-25 00:19:00,0.0,1.9270,0.0010,405.33,0.37,-1.0,0.0,138.05,30.94,24.66,36.42,0.04,-272.76,-272.76,-43,564,-937,24.7,0.9,-36.5,24.7,0.9,-36.3,5.73,2.38,-31.7,29.9
2013-03-25 00:20:00,0.0,1.9267,0.0011,405.25,0.41,-1.0,0.0,138.05,30.94,24.66,36.43,0.04,-272.75,-272.75,-43,564,-936,24.7,0.8,-36.9,24.7,0.8,-36.6,5.73,2.35,-31.7,29.9
2013-03-25 00:21:00,0.0,1.9267,0.0012,405.39,0.40,-1.0,0.0,138.05,30.94,24.66,36.42,0.04,-272.75,-272.75,-43,564,-936,24.7,0.8,-36.9,24.7,0.8,-36.8,5.73,2.36,-31.7,29.9
2013-03-25 00:22:00,0.0,1.9267,0.0010,405.35,0.49,-1.0,0.0,138.05,30.94,24.66,36.43,0.04,-272.76,-272.76,-43,564,-936,24.7,0.8,-36.7,24.7,0.8,-36.8,5.73,2.39,-31.7,29.9
2013-03-25 00:23:00,0.0,1.9269,0.0011,405.34,0.43,-1.0,0.0,138.05,30.94,24.66,36.43,0.04,-272.76,-272.75,-43,564,-937,24.7,0.8,-37.0,24.8,0.8,-36.6,5.73,2.42,-31.7,29.9
2013-03-25 00:24:00,0.0,1.9265,0.0010,405.46,0.47,-1.0,0.0,138.05,30.95,24.66,36.43,0.04,-272.75,-272.75,-43,564,-936,24.7,0.8,-37.2,24.8,0.9,-36.4,5.73,2.43,-31.7,29.9
2013-03-25 00:25:00,0.0,1.9266,0.0010,405.40,0.44,-1.0,0.0,138.05,30.95,24.66,36.42,0.04,-272.75,-272.75,-43,564,-936,24.7,0.9,-36.6,24.7,0.9,-36.2,5.73,2.39,-31.7,29.9
2013-03-25 00:26:00,0.0,1.9272,0.0011,405.40,0.43,-1.0,0.0,138.05,30.95,24.66,36.42,0.04,-272.76,-272.76,-43,564,-936,24.7,0.8,-36.7,24.8,0.9,-36.0,5.73,2.35,-31.7,29.9
2013-03-25 00:27:00,0.0,1.9275,0.0011,405.33,0.50,-1.0,0.0,138.05,30.95,24.66,36.43,0.04,-272.76,-272.76,-43,564,-937,24.7,0.9,-36.2,24.8,0.9,-36.0,5.73,2.36,-31.7,29.9
2013-03-25 00:28:00,0.0,1.9276,0.0010,405.35,0.39,-1.0,0.0,138.05,30.95,24.66,36.43,0.04,-272.76,-272.75,-43,564,-936,24.7,0.9,-36.0,24.8,0.9,-36.0,5.73,2.39,-31.7,29.9
2013-03-25 00:29:00,0.0,1.9281,0.0009,405.56,0.32,-1.0,0.0,138.05,30.95,24.66,36.42,0.04,-272.76,-272.75,-43,564,-936,24.7,0.9,-36.3,24.8,0.9,-35.6,5.73,2.43,-31.7,30.0
2013-03-25 00:30:00,0.0,1.9283,0.0010,405.45,0.41,-1.0,0.0,138.05,30.95,24.66,36.43,0.04,-272.76,-272.75,-43,564,-936,24.7,0.9,-36.1,24.8,0.9,-35.7,5.73,2.42,-31.7,30.0
2013-03-25 00:31:00,0.0,1.9296,0.0013,405.55,0.33,-1.0,0.0,138.05,30.96,24.66,36.42,0.04,-272.75,-272.75,-43,564,-937,24.8,0.9,-36.1,24.8,0.9,-35.9,5.73,2.38,-31.6,30.0
2013-03-25 00:32:00,0.0,1.9287,0.0012,405.45,0.47,-1.0,0.0,138.05,30.96,24.66,36.43,0.04,-272.76,-272.76,-43,565,-937,24.7,0.9,-36.1,24.8,0.9,-35.7,5.73,2.34,-31.6,30.0
2013-03-25 00:33:00,0.0,1.9274,0.0009,405.52,0.39,-1.0,0.0,138.05,30.96,24.66,36.43,0.04,-272.75,-272.76,-43,564,-936,24.8,0.9,-35.8,24.8,0.9,-35.6,5.73,2.35,-31.6,30.0
2013-03-25 00:34:00,0.0,1.9270,0.0011,405.52,0.43,-1.0,0.0,138.05,30.97,24.66,36.42,0.04,-272.76,-272.75,-43,565,-936,24.8,0.9,-36.0,24.8,1.0,-35.4,5.73,2.41,-31.6,30.0
2013-03-25 00:35:00,0.0,1.9266,0.0010,405.38,0.41,-1.0,0.0,138.05,30.97,24.66,36.43,0.04,-272.76,-272.76,-43,565,-937,24.8,0.9,-36.4,24.8,0.9,-35.9,5.73,2.42,-31.6,30.0
2013-03-25 00:36:00,0.0,1.9276,0.0009,405.49,0.40,-1.0,0.0,138.05,30.97,24.66,36.42,0.04,-272.76,-272.76,-43,565,-937,24.8,0.9,-36.0,24.8,0.9,-35.6,5.73,2.41,-31.6,30.0
2013-03-25 00:37:00,0.0,1.9278,0.0010,405.47,0.46,-1.0,0.0,138.05,30.97,24.66,36.42,0.04,-272.76,-272.75,-43,565,-936,24.8,0.9,-36.2,24.8,0.9,-35.7,5.73,2.37,-31.6,30.0
2013-03-25 00:38:00,0.0,1.9272,0.0007,405.30,0.43,-1.0,0.0,138.04,30.98,24.66,36.43,0.04,-272.75,-272.76,-43,565,-936,24.8,0.9,-35.7,24.8,0.9,-35.8,5.73,2.34,-31.6,30.0
2013-03-25 00:39:00,0.0,1.9277,0.0011,405.48,0.49,-1.0,0.0,138.05,30.98,24.66,36.42,0.04,-272.75,-272.76,-43,565,-936,24.8,0.9,-35.9,24.9,1.0,-35.3,5.73,2.37,-31.6,30.0
2013-03-25 00:40:00,0.0,1.9287,0.0009,405.52,0.49,-1.0,0.0,138.05,30.98,24.66,36.42,0.04,-272.76,-272.75,-43,565,-937,24.8,0.9,-35.9,24.9,1.0,-35.2,5.73,2.41,-31.6,30.0
2013-03-25 00:41:00,0.0,1.9291,0.0008,405.61,0.46,-1.0,0.0,138.04,30.98,24.66,36.42,0.04,-272.76,-272.75,-43,565,-936,24.8,0.9,-36.3,24.9,0.9,-35.5,5.73,2.43,-31.6,30.1
2013-03-25 00:42:00,0.0,1.9284,0.0011,405.46,0.43,-1.0,0.0,138.04,30.99,24.66,36.43,0.04,-272.76,-272.76,-43,565,-936,24.8,0.9,-36.0,24.9,0.9,-35.4,5.73,2.40,-31.6,30.0
2013-03-25 00:43:00,0.0,1.9273,0.0008,405.49,0.41,-1.0,0.0,138.05,30.99,24.66,36.42,0.04,-272.75,-272.76,-43,565,-936,24.8,0.9,-35.7,24.9,0.9,-35.5,5.73,2.36,-31.6,30.0
2013-03-25 00:44:00,0.0,1.9266,0.0010,405.54,0.49,-1.0,0.0,138.04,30.99,24.66,36.42,0.04,-272.75,-272.76,-43,565,-937,24.8,0.9,-35.7,24.9,1.0,-35.4,5.73,2.35,-31.5,30.1
2013-03-25 00:45:00,0.0,1.9281,0.0011,405.41,0.39,-1.0,0.0,138.04,30.99,24.66,36.43,0.04,-272.75,-272.76,-43,565,-936,24.8,0.9,-35.6,24.9,1.0,-35.2,5.73,2.38,-31.6,30.0
2013-03-25 00:46:00,0.0,1.9304,0.0008,405.50,0.42,-1.0,0.0,138.04,30.99,24.66,36.43,0.04,-272.76,-272.76,-43,565,-936,24.8,0.9,-35.6,24.9,1.0,-35.0,5.73,2.43,-31.5,30.0
2013-03-25 00:47:00,0.0,1.9301,0.0011,405.45,0.36,-1.0,0.0,138.04,31.00,24.66,36.43,0.04,-272.75,-272.75,-43,565,-936,24.9,0.9,-35.9,24.9,1.0,-35.0,5.73,2.43,-31.5,30.1
2013-03-25 00:48:00,0.0,1.9307,0.0014,405.51,0.38,-1.0,0.0,138.04,31.00,24.66,36.42,0.04,-272.75,-272.75,-43,565,-937,24.8,0.9,-35.6,24.9,1.0,-35.1,5.73,2.38,-31.5,30.1
2013-03-25 00:49:00,0.0,1.9315,0.0012,405.46,0.46,-1.0,0.0,138.04,31.00,24.66,36.43,0.04,-272.76,-272.75,-43,565,-936,24.8,0.9,-35.5,24.9,1.0,-35.0,5.73,2.34,-31.5,30.1
2013-03-25 00:50:00,0.0,1.9290,0.0013,405.47,0.46,-1.0,0.0,138.04,31.01,24.66,36.42,0.04,-272.75,-272.75,-43,565,-936,24.8,0.9,-35.5,24.9,1.0,-35.1,5.73,2.36,-31.5,30.1
2013-03-25 00:51:00,0.0,1.9271,0.0010,405.62,0.45,-1.0,0.0,138.04,31.01,24.66,36.42,0.04,-272.75,-272.76,-43,565,-937,24.8,1.0,-35.3,25.0,1.0,-35.0,5.73,2.41,-31.5,30.0
2013-03-25 00:52:00,0.0,1.9267,0.0009,405.54,0.42,-1.0,0.0,138.04,31.01,24.66,36.43,0.04,-272.76,-272.75,-43,565,-937,24.8,0.9,-35.4,24.9,1.0,-35.2,5.73,2.43,-31.5,30.1
2013-03-25 00:53:00,0.0,1.9270,0.0009,405.53,0.38,-1.0,0.0,138.04,31.01,24.66,36.43,0.04,-272.76,-272.76,-43,565,-936,24.9,1.0,-35.2,24.9,1.0,-35.2,5.73,2.40,-31.5,30.1
2013-03-25 00:54:00,0.0,1.9279,0.0010,405.57,0.42,-1.0,0.0,138.04,31.02,24.66,36.43,0.04,-272.75,-272.75,-43,565,-936,24.8,1.0,-35.3,24.9,1.0,-34.9,5.73,2.35,-31.5,30.1
2013-03-25 00:55:00,0.0,1.9288,0.0009,405.64,0.43,-1.0,0.0,138.04,31.02,24.66,36.42,0.04,-272.76,-272.76,-43,565,-937,24.9,1.0,-35.0,24.9,1.0,-34.6,5.73,2.35,-31.4,30.1
2013-03-25 00:56:00,0.0,1.9274,0.0012,405.53,0.45,-1.0,0.0,138.04,31.02,24.66,36.42,0.04,-272.75,-272.76,-43,565,-937,24.9,1.0,-35.2,25.0,1.0,-34.5,5.73,2.39,-31.4,30.1
2013-03-25 00:57:00,0.0,1.9270,0.0010,405.50,0.41,-1.0,0.0,138.04,31.02,24.66,36.42,0.04,-272.75,-272.75,-43,565,-936,24.9,1.0,-35.3,25.0,1.0,-34.6,5.73,2.43,-31.4,30.1
2013-03-25 00:58:00,0.0,1.9270,0.0010,405.46,0.40,-1.0,0.0,138.04,31.03,24.66,36.42,0.04,-272.75,-272.75,-43,565,-936,24.9,1.1,-34.3,25.0,1.1,-33.9,5.73,2.41,-31.4,30.1
2013-03-25 00:59:00,0.0,1.9275,0.0009,405.47,0.46,-1.0,0.0,138.04,31.03,24.66,36.43,0.04,-272.75,-272.76,-43,565,-937,24.9,1.3,-32.5,25.0,1.4,-31.7,5.73,2.36,-31.4,30.1
2013-03-25 01:00:00,0.0,1.9278,0.0009,405.48,0.41,-1.0,0.0,138.04,31.03,24.66,36.43,0.04,-272.75,-272.76,-43,565,-937,24.9,1.0,-34.6,25.0,1.1,-34.2,5.73,2.34,-31.5,30.1
2013-03-25 01:01:00,0.0,1.9276,0.0009,405.52,0.39,-1.0,0.0,138.04,31.03,24.66,36.43,0.04,-272.76,-272.75,-43,565,-936,24.9,1.0,-34.6,25.0,1.0,-34.3,5.73,2.39,-31.4,30.2
2013-03-25 01:02:00,0.0,1.9278,0.0011,405.44,0.42,-1.0,0.0,138.04,31.04,24.66,36.43,0.04,-272.75,-272.75,-43,565,-936,24.9,1.0,-34.9,25.0,1.1,-34.3,5.73,2.43,-31.3,30.1
2013-03-25 01:03:00,0.0,1.9291,0.0008,405.65,0.41,-1.0,0.0,138.04,31.04,24.66,36.42,0.04,-272.76,-272.75,-43,565,-937,24.9,1.0,-35.1,25.0,1.0,-34.5,5.73,2.41,-31.3,30.2
2013-03-25 01:04:00,0.0,1.9288,0.0009,405.55,0.39,-1.0,0.0,138.04,31.04,24.66,36.42,0.04,-272.76,-272.76,-43,565,-937,24.9,1.0,-35.1,25.0,1.0,-34.5,5.73,2.36,-31.3,30.2
2013-03-25 01:05:00,0.0,1.9307,0.0011,405.50,0.40,-1.0,0.0,138.04,31.05,24.66,36.42,0.04,-272.76,-272.75,-43,565,-936,24.9,1.0,-35.4,25.0,1.0,-34.5,5.73,2.34,-31.3,30.2
2013-03-25 01:06:00,0.0,1.9304,0.0011,405.39,0.43,-1.0,0.0,138.04,31.05,24.66,36.43,0.04,-272.76,-272.75,-43,565,-936,25.0,1.0,-35.1,25.0,1.0,-34.5,5.73,2.37,-31.3,30.2
2013-03-25 01:07:00,0.0,1.9299,0.0012,405.46,0.46,-1.0,0.0,138.04,31.05,24.66,36.43,0.04,-272.75,-272.75,-43,565,-937,25.0,1.0,-35.1,25.0,1.0,-34.6,5.73,2.42,-31.2,30.2
2013-03-25 01:08:00,0.0,1.9295,0.0010,405.57,0.45,-1.0,0.0,138.04,31.06,24.66,36.42,0.04,-272.76,-272.76,-43,565,-937,24.9,1.0,-35.0,25.0,1.0,-34.8,5.73,2.42,-31.2,30.2
2013-03-25 01:09:00,0.0,1.9288,0.0009,405.57,0.35,-1.0,0.0,138.04,31.06,24.66,36.42,0.04,-272.76,-272.76,-43,565,-937,25.0,1.0,-35.2,25.0,1.0,-34.3,5.73,2.37,-31.2,30.2
2013-03-25 01:10:00,0.0,1.9289,0.0012,405.68,0.44,-1.0,0.0,138.04,31.06,24.66,36.42,0.04,-272.76,-272.76,-43,566,-936,25.0,1.0,-34.8,25.0,1.0,-34.6,5.73,2.34,-31.2,30.2
2013-03-25 01:11:00,0.0,1.9286,0.0007,405.47,0.36,-1.0,0.0,138.04,31.07,24.66,36.43,0.04,-272.75,-272.76,-43,566,-936,25.0,1.0,-34.6,25.0,1.0,-34.3,5.73,2.37,-31.2,30.2
2013-03-25 01:12:00,0.0,1.9302,0.0011,405.68,0.48,-1.0,0.0,138.04,31.07,24.66,36.42,0.04,-272.75,-272.75,-43,566,-937,25.0,1.0,-34.8,25.0,1.1,-34.2,5.73,2.43,-31.2,30.2
2013-03-25 01:13:00,0.0,1.9292,0.0010,405.65,0.42,-1.0,0.0,138.04,31.08,24.66,36.42,0.04,-272.76,-272.75,-43,566,-937,25.0,1.0,-34.7,25.0,1.1,-34.2,5.73,2.42,-31.2,30.2
2013-03-25 01:14:00,0.0,1.9280,0.0009,405.69,0.40,-1.0,0.0,138.04,31.08,24.66,36.43,0.04,-272.75,-272.76,-43,566,-936,25.0,1.0,-34.6,25.1,1.1,-34.0,5.73,2.36,-31.1,30.2
2013-03-25 01:15:00,0.0,1.9279,0.0007,405.63,0.48,-1.0,0.0,138.04,31.08,24.66,36.42,0.04,-272.76,-272.76,-43,566,-937,25.0,1.0,-34.5,25.1,1.1,-34.1,5.73,2.34,-31.1,30.2
2013-03-25 01:16:00,0.0,1.9281,0.0009,405.58,0.43,-1.0,0.0,138.04,31.08,24.66,36.43,0.04,-272.76,-272.76,-43,566,-937,25.0,1.0,-34.4,25.1,1.1,-33.9,5.73,2.38,-31.1,30.2
2013-03-25 01:17:00,0.0,1.9285,0.0009,405.73,0.44,-1.0,0.0,138.04,31.09,24.66,36.42,0.04,-272.76,-272.75,-43,566,-937,25.0,1.1,-34.1,25.1,1.1,-34.0,5.73,2.43,-31.1,30.2
2013-03-25 01:18:00,0.0,1.9284,0.0011,405.50,0.40,-1.0,0.0,138.04,31.09,24.66,36.43,0.04,-272.75,-272.75,-43,566,-936,25.0,1.1,-34.0,25.1,1.1,-33.7,5.73,2.42,-31.1,30.3
2013-03-25 01:19:00,0.0,1.9284,0.0009,405.60,0.39,-1.0,0.0,138.04,31.10,24.66,36.43,0.04,-272.75,-272.75,-43,566,-937,25.0,1.1,-34.1,25.1,1.1,-33.8,5.73,2.36,-31.1,30.2
2013-03-25 01:20:00,0.0,1.9286,0.0008,405.59,0.42,-1.0,0.0,138.04,31.10,24.66,36.42,0.04,-272.75,-272.75,-43,566,-937,25.0,1.1,-33.9,25.1,1.1,-33.6,5.73,2.34,-31.0,30.3
2013-03-25 01:21:00,0.0,1.9289,0.0008,405.60,0.42,-1.0,0.0,138.04,31.11,24.66,36.42,0.04,-272.76,-272.75,-43,566,-937,25.1,1.1,-33.9,25.1,1.1,-33.5,5.73,2.38,-31.0,30.2
2013-03-25 01:22:00,0.0,1.9295,0.0010,405.67,0.35,-1.0,0.0,138.04,31.11,24.66,36.42,0.04,-272.75,-272.75,-43,566,-937,25.1,1.1,-33.6,25.1,1.1,-33.6,5.73,2.43,-31.0,30.3
2013-03-25 01:23:00,0.0,1.9296,0.0008,405.60,0.44,-1.0,0.0,138.04,31.12,24.66,36.42,0.04,-272.75,-272.76,-43,566,-936,25.1,1.1,-33.9,25.1,1.1,-33.4,5.73,2.41,-31.0,30.3
2013-03-25 01:24:00,0.0,1.9296,0.0009,405.58,0.43,-1.0,0.0,138.04,31.12,24.66,36.42,0.04,-272.75,-272.75,-43,566,-937,25.0,1.1,-33.7,25.1,1.2,-33.3,5.73,2.35,-31.0,30.3
2013-03-25 01:25:00,0.0,1.9300,0.0009,405.62,0.46,-1.0,0.0,138.04,31.13,24.66,36.43,0.04,-272.76,-272.75,-44,566,-937,25.0,1.1,-33.6,25.1,1.2,-33.3,5.73,2.35,-31.1,30.3
2013-03-25 01:26:00,0.0,1.9301,0.0009,405.64,0.42,-1.0,0.0,138.04,31.13,24.66,36.42,0.04,-272.75,-272.76,-44,566,-937,25.0,1.1,-33.5,25.0,1.2,-33.0,5.73,2.38,-31.1,30.3
2013-03-25 01:27:00,0.0,1.9297,0.0010,405.64,0.41,-1.0,0.0,138.04,31.14,24.66,36.43,0.04,-272.75,-272.75,-43,566,-937,25.0,1.1,-33.6,25.1,1.2,-32.9,5.73,2.42,-31.1,30.3
2013-03-25 01:28:00,0.0,1.9302,0.0006,405.67,0.46,-1.0,0.0,138.04,31.14,24.66,36.42,0.04,-272.75,-272.75,-43,566,-936,24.9,1.2,-33.2,25.0,1.2,-32.9,5.73,2.43,-31.1,30.3
2013-03-25 01:29:00,0.0,1.9302,0.0007,405.65,0.40,-1.0,0.0,138.04,31.15,24.66,36.43,0.04,-272.76,-272.76,-43,566,-937,24.9,1.2,-33.2,25.0,1.2,-32.7,5.73,2.38,-31.1,30.3
2013-03-25 01:30:00,0.0,1.9301,0.0009,405.62,0.39,-1.0,0.0,138.04,31.15,24.66,36.43,0.04,-272.75,-272.76,-43,566,-936,24.9,1.2,-33.0,25.0,1.2,-32.7,5.73,2.34,-31.1,30.3
2013-03-25 01:31:00,0.0,1.9300,0.0007,405.69,0.38,-1.0,0.0,138.04,31.15,24.66,36.42,0.04,-272.75,-272.75,-43,566,-937,24.9,1.2,-32.9,25.0,1.2,-32.9,5.73,2.35,-31.1,30.3
2013-03-25 01:32:00,0.0,1.9290,0.0008,405.73,0.43,-1.0,0.0,138.04,31.16,24.66,36.42,0.04,-272.75,-272.76,-44,566,-937,24.8,1.2,-32.9,24.9,1.3,-32.6,5.73,2.41,-31.2,30.3
2013-03-25 01:33:00,0.0,1.9287,0.0010,405.60,0.42,-1.0,0.0,138.04,31.16,24.66,36.42,0.04,-272.75,-272.76,-43,566,-936,24.8,1.2,-33.0,24.9,1.3,-32.5,5.73,2.43,-31.2,30.3
2013-03-25 01:34:00,0.0,1.9285,0.0009,405.56,0.38,-1.0,0.0,138.04,31.16,24.66,36.42,0.04,-272.76,-272.76,-44,565,-937,24.8,1.2,-33.1,24.9,1.3,-32.6,5.73,2.40,-31.1,30.3
2013-03-25 01:35:00,0.0,1.9284,0.0010,405.66,0.47,-1.0,0.0,138.04,31.17,24.66,36.42,0.04,-272.75,-272.75,-43,565,-936,24.8,1.2,-32.7,24.9,1.3,-32.3,5.73,2.36,-31.2,30.2
2013-03-25 01:36:00,0.0,1.9286,0.0010,405.62,0.39,-1.0,0.0,138.04,31.17,24.66,36.42,0.04,-272.76,-272.76,-43,565,-937,24.8,1.2,-32.7,24.9,1.3,-32.3,5.73,2.34,-31.2,30.3
2013-03-25 01:37:00,0.0,1.9286,0.0010,405.73,0.42,-1.0,0.0,138.04,31.17,24.66,36.42,0.04,-272.76,-272.76,-43,565,-937,24.7,1.3,-32.5,24.9,1.3,-32.2,5.73,2.38,-31.2,30.2
2013-03-25 01:38:00,0.0,1.9291,0.0009,405.64,0.40,-1.0,0.0,138.04,31.17,24.66,36.42,0.04,-272.75,-272.76,-43,565,-936,24.7,1.3,-32.7,24.9,1.3,-32.2,5.73,2.42,-31.2,30.2
2013-03-25 01:39:00,0.0,1.9291,0.0009,405.58,0.47,-1.0,0.0,138.04,31.18,24.66,36.43,0.04,-272.75,-272.76,-43,565,-936,24.7,1.3,-32.4,24.9,1.3,-32.1,5.73,2.42,-31.1,30.2
2013-03-25 01:40:00,0.0,1.9290,0.0010,405.59,0.44,-1.0,0.0,138.04,31.18,24.66,36.42,0.04,-272.75,-272.76,-43,565,-937,24.7,1.3,-32.5,24.8,1.3,-32.1,5.73,2.38,-31.1,30.2
2013-03-25 01:41:00,0.0,1.9288,0.0010,405.69,0.43,-1.0,0.0,138.04,31.19,24.66,36.42,0.04,-272.76,-272.75,-43,565,-937,24.7,1.3,-32.1,24.8,1.3,-32.2,5.73,2.34,-31.1,30.2
2013-03-25 01:42:00,0.0,1.9290,0.0009,405.60,0.38,-1.0,0.0,138.04,31.20,24.66,36.42,0.04,-272.75,-272.76,-43,565,-936,24.7,1.3,-32.7,24.8,1.3,-32.0,5.73,2.36,-31.1,30.2
2013-03-25 01:43:00,0.0,1.9283,0.0011,405.70,0.41,-1.0,0.0,138.04,31.20,24.66,36.43,0.04,-272.76,-272.76,-43,565,-936,24.7,1.3,-32.3,24.8,1.4,-31.8,5.73,2.42,-31.1,30.2
2013-03-25 01:44:00,0.0,1.9285,0.0010,405.69,0.43,-1.0,0.0,138.04,31.21,24.66,36.43,0.04,-272.76,-272.76,-43,564,-937,24.6,1.3,-32.4,24.8,1.4,-31.7,5.73,2.43,-31.1,30.2
2013-03-25 01:45:00,0.0,1.9282,0.0009,405.75,0.40,-1.0,0.0,138.04,31.21,24.66,36.42,0.04,-272.75,-272.76,-43,565,-937,24.6,1.4,-31.9,24.8,1.4,-31.7,5.73,2.39,-31.1,30.1
2013-03-25 01:46:00,0.0,1.9281,0.0011,405.71,0.42,-1.0,0.0,138.04,31.21,24.66,36.42,0.04,-272.75,-272.76,-43,565,-936,24.6,1.4,-31.8,24.8,1.4,-31.6,5.73,2.34,-31.1,30.2
2013-03-25 01:47:00,0.0,1.9285,0.0009,405.81,0.40,-1.0,0.0,138.04,31.22,24.66,36.41,0.04,-272.75,-272.76,-43,564,-936,24.6,1.3,-32.1,24.7,1.4,-31.7,5.73,2.35,-31.1,30.1
2013-03-25 01:48:00,0.0,1.9289,0.0011,405.74,0.36,-1.0,0.0,138.04,31.22,24.66,36.42,0.04,-272.76,-272.76,-43,564,-937,24.6,1.3,-32.3,24.7,1.4,-31.7,5.73,2.40,-31.1,30.1
2013-03-25 01:49:00,0.0,1.9288,0.0009,405.71,0.38,-1.0,0.0,138.04,31.23,24.66,36.42,0.04,-272.75,-272.75,-43,564,-937,24.6,1.4,-32.0,24.7,1.4,-31.8,5.73,2.43,-31.1,30.1
2013-03-25 01:50:00,0.0,1.9290,0.0010,405.93,0.41,-1.0,0.0,138.04,31.23,24.66,36.42,0.04,-272.76,-272.76,-43,564,-936,24.6,1.3,-32.3,24.7,1.4,-31.8,5.73,2.41,-31.1,30.1
2013-03-25 01:51:00,0.0,1.9285,0.0008,405.64,0.35,-1.0,0.0,138.04,31.23,24.66,36.43,0.04,-272.75,-272.76,-43,564,-936,24.6,1.3,-32.3,24.7,1.4,-31.7,5.73,2.35,-31.1,30.1
2013-03-25 01:52:00,0.0,1.9284,0.0008,405.75,0.47,-1.0,0.0,138.04,31.24,24.66,36.42,0.04,-272.75,-272.76,-43,564,-936,24.6,1.3,-32.3,24.7,1.4,-31.8,5.73,2.34,-31.0,30.1
2013-03-25 01:53:00,0.0,1.9292,0.0008,405.69,0.42,-1.0,0.0,138.04,31.24,24.66,36.42,0.04,-272.76,-272.76,-43,564,-937,24.6,1.3,-32.3,24.7,1.4,-31.7,5.73,2.39,-31.0,30.1
2013-03-25 01:54:00,0.0,1.9294,0.0009,405.63,0.41,-1.0,0.0,138.04,31.24,24.66,36.43,0.04,-272.76,-272.76,-43,564,-937,24.6,1.3,-32.4,24.7,1.4,-31.8,5.73,2.43,-31.0,30.1
2013-03-25 01:55:00,0.0,1.9302,0.0008,405.60,0.40,-1.0,0.0,138.04,31.25,24.66,36.43,0.04,-272.75,-272.76,-43,564,-937,24.6,1.3,-32.0,24.7,1.4,-31.7,5.73,2.42,-31.0,30.1
2013-03-25 01:56:00,0.0,1.9293,0.0010,405.88,0.43,-1.0,0.0,138.04,31.25,24.66,36.42,0.04,-272.76,-272.76,-43,564,-937,24.5,1.4,-31.9,24.7,1.4,-31.6,5.73,2.35,-30.9,30.0
2013-03-25 01:57:00,0.0,1.9290,0.0010,405.88,0.42,-1.0,0.0,138.04,31.25,24.66,36.42,0.04,-272.76,-272.76,-43,564,-936,24.5,1.4,-31.7,24.7,1.4,-31.7,5.73,2.35,-30.9,30.0
2013-03-25 01:58:00,0.0,1.9303,0.0015,405.59,0.48,-1.0,0.0,138.04,31.26,24.66,36.42,0.04,-272.76,-272.76,-43,564,-936,24.6,1.3,-32.1,24.6,1.4,-31.8,5.73,2.38,-30.9,30.0
2013-03-25 01:59:00,0.0,1.9326,0.0009,405.58,0.46,-1.0,0.0,138.04,31.26,24.66,36.42,0.04,-272.75,-272.75,-43,564,-936,24.6,1.4,-32.0,24.6,1.4,-31.6,5.73,2.43,-30.9,30.0
2013-03-25 02:00:00,0.0,1.9318,0.0012,405.41,0.38,-1.0,0.0,138.04,31.26,24.66,36.43,0.04,-272.76,-272.76,-43,564,-936,24.5,1.3,-32.1,24.6,1.4,-31.8,5.73,2.42,-30.9,30.0
2013-03-25 02:01:00,0.0,1.9304,0.0009,405.45,0.41,-1.0,0.0,138.04,31.27,24.66,36.42,0.04,-272.75,-272.76,-43,564,-936,24.5,1.3,-32.1,24.6,1.4,-31.9,5.73,2.36,-30.9,29.9
2013-03-25 02:02:00,0.0,1.9299,0.0008,405.39,0.39,-1.0,0.0,138.04,31.27,24.66,36.42,0.04,-272.75,-272.75,-43,564,-936,24.5,1.3,-32.2,24.6,1.4,-31.7,5.73,2.34,-30.9,30.0
2013-03-25 02:03:00,0.0,1.9295,0.0010,405.51,0.47,-1.0,0.0,138.04,31.27,24.66,36.42,0.04,-272.75,-272.75,-43,563,-936,24.5,1.4,-31.9,24.6,1.4,-31.8,5.73,2.38,-30.9,30.0
2013-03-25 02:04:00,0.0,1.9298,0.0010,405.43,0.34,-1.0,0.0,138.04,31.28,24.66,36.42,0.04,-272.76,-272.76,-43,563,-937,24.5,1.4,-31.8,24.6,1.4,-31.4,5.73,2.42,-30.8,30.0
2013-03-25 02:05:00,0.0,1.9296,0.0011,405.33,0.44,-1.0,0.0,138.03,31.29,24.66,36.42,0.04,-272.75,-272.75,-43,563,-937,24.5,1.4,-32.0,24.6,1.4,-31.6,5.73,2.42,-30.8,30.0
2013-03-25 02:06:00,0.0,1.9301,0.0009,405.38,0.37,-1.0,0.0,138.03,31.29,24.66,36.42,0.04,-272.75,-272.75,-43,563,-937,24.5,1.3,-32.2,24.6,1.4,-31.7,5.73,2.37,-30.8,29.9
2013-03-25 02:07:00,0.0,1.9300,0.0009,405.38,0.39,-1.0,0.0,138.03,31.29,24.66,36.42,0.04,-272.76,-272.76,-43,563,-937,24.4,1.4,-32.0,24.6,1.4,-31.7,5.73,2.33,-30.8,30.0
2013-03-25 02:08:00,0.0,1.9309,0.0011,405.37,0.41,-1.0,0.0,138.04,31.30,24.66,36.43,0.04,-272.75,-272.76,-43,563,-937,24.4,1.3,-32.3,24.6,1.4,-31.8,5.73,2.38,-30.8,29.9
2013-03-25 02:09:00,0.0,1.9305,0.0011,405.43,0.40,-1.0,0.0,138.04,31.30,24.66,36.42,0.04,-272.75,-272.75,-43,563,-937,24.5,1.3,-32.3,24.6,1.3,-32.0,5.73,2.43,-30.8,29.9
2013-03-25 02:10:00,0.0,1.9299,0.0011,405.40,0.44,-1.0,0.0,138.04,31.31,24.66,36.42,0.04,-272.76,-272.75,-43,563,-937,24.4,1.3,-32.4,24.6,1.3,-32.2,5.73,2.42,-30.8,29.9
2013-03-25 02:11:00,0.0,1.9264,0.0011,405.57,0.41,-1.0,0.0,138.03,31.31,24.66,36.42,0.04,-272.76,-272.76,-43,563,-937,24.4,1.3,-32.6,24.6,1.3,-32.1,5.73,2.37,-30.8,29.9
2013-03-25 02:12:00,0.0,1.9263,0.0011,405.49,0.47,-1.0,0.0,138.03,31.32,24.66,36.42,0.04,-272.75,-272.75,-43,563,-937,24.4,1.3,-32.5,24.6,1.3,-32.1,5.73,2.34,-30.7,29.9
2013-03-25 02:13:00,0.0,1.9283,0.0009,405.44,0.46,-1.0,0.0,138.03,31.32,24.66,36.43,0.04,-272.75,-272.75,-43,563,-937,24.4,1.3,-32.5,24.6,1.3,-32.3,5.73,2.39,-30.8,29.9
2013-03-25 02:14:00,0.0,1.9272,0.0011,405.51,0.42,-1.0,0.0,138.03,31.33,24.66,36.42,0.04,-272.75,-272.76,-43,563,-937,24.4,1.3,-32.5,24.6,1.3,-32.1,5.73,2.43,-30.7,29.8
2013-03-25 02:15:00,0.0,1.9270,0.0010,405.51,0.45,-1.0,0.0,138.04,31.33,24.66,36.43,0.04,-272.75,-272.75,-43,563,-937,24.4,1.3,-32.3,24.6,1.3,-32.5,5.73,2.42,-30.7,29.9
2013-03-25 02:16:00,0.0,1.9279,0.0010,405.53,0.46,-1.0,0.0,138.03,31.33,24.66,36.42,0.04,-272.75,-272.75,-43,563,-937,24.4,1.3,-32.8,24.5,1.4,-31.9,5.73,2.36,-30.7,29.9
2013-03-25 02:17:00,0.0,1.9288,0.0016,405.50,0.34,-0.9,0.7,138.03,31.34,24.66,36.42,0.04,-272.75,-272.76,-43,563,-937,24.5,1.3,-32.4,24.6,1.3,-32.1,5.73,2.34,-30.7,29.8
2013-03-25 02:18:00,0.0,1.9268,0.0010,405.48,0.45,-1.0,0.0,138.03,31.34,24.66,36.42,0.04,-272.75,-272.75,-43,563,-937,24.4,1.3,-32.6,24.5,1.3,-32.1,5.73,2.39,-30.7,29.8